BAW308 EGLL-LFPG

Flight info

Callsign BAW308
Flight time 0h 43m
Altitude 25000
Route MODMI1J MODMI M185 MID UL612 BOGNA DCT HARDY UM605 BIBAX BIBAX9W
Aircraft A320/M-SDE3FGHIJ1RWXY/S

Departure

Time 2026-05-06 14:11
Airport London Heathrow Airport (EGLL)

Arrival

Time 2026-05-06 14:55
Airport Charles de Gaulle International Airport (LFPG)
Time Latitude Longitude Altitude Speed Heading
2026-05-06 13:59 51.47187 -0.48606 91 ft 0 kts 269°
2026-05-06 14:06 51.47187 -0.48583 87 ft 2 kts 269°
2026-05-06 14:06 51.47187 -0.48555 87 ft 2 kts 269°
2026-05-06 14:07 51.47187 -0.48527 87 ft 2 kts 270°
2026-05-06 14:07 51.47187 -0.48500 87 ft 3 kts 256°
2026-05-06 14:07 51.47194 -0.48474 90 ft 2 kts 221°
2026-05-06 14:07 51.47205 -0.48462 88 ft 0 kts 196°
2026-05-06 14:08 51.47050 -0.48473 87 ft 18 kts 177°
2026-05-06 14:08 51.46917 -0.48472 90 ft 20 kts 180°
2026-05-06 14:09 51.46773 -0.48472 90 ft 22 kts 179°
2026-05-06 14:09 51.46612 -0.48470 87 ft 24 kts 179°
2026-05-06 14:09 51.46486 -0.48436 89 ft 9 kts 114°
2026-05-06 14:09 51.46479 -0.48375 89 ft 0 kts 89°
2026-05-06 14:10 51.46479 -0.48374 89 ft 2 kts 89°
2026-05-06 14:10 51.46479 -0.48173 88 ft 41 kts 90°
2026-05-06 14:11 51.46479 -0.47336 87 ft 106 kts 89°
2026-05-06 14:11 51.46489 -0.45880 86 ft 154 kts 88°
2026-05-06 14:11 51.46500 -0.43997 380 ft 175 kts 89°
2026-05-06 14:11 51.46460 -0.41968 868 ft 197 kts 96°
2026-05-06 14:12 51.45868 -0.39805 1317 ft 227 kts 119°
2026-05-06 14:12 51.44883 -0.37901 1755 ft 253 kts 144°
2026-05-06 14:12 51.43452 -0.36767 2441 ft 264 kts 158°
2026-05-06 14:12 51.41677 -0.35815 3301 ft 270 kts 165°
2026-05-06 14:13 51.40020 -0.35572 4111 ft 275 kts 188°
2026-05-06 14:13 51.38223 -0.36566 5066 ft 275 kts 210°
2026-05-06 14:13 51.36529 -0.38060 5805 ft 281 kts 210°
2026-05-06 14:13 51.34800 -0.39517 6752 ft 282 kts 209°
2026-05-06 14:14 51.34283 -0.39945 7010 ft 283 kts 208°
2026-05-06 14:14 51.32597 -0.41784 7888 ft 285 kts 217°
2026-05-06 14:14 51.30857 -0.43393 8764 ft 290 kts 208°
2026-05-06 14:14 51.29029 -0.44715 9632 ft 294 kts 205°
2026-05-06 14:15 51.27132 -0.45989 10280 ft 305 kts 205°
2026-05-06 14:15 51.25099 -0.47398 10537 ft 327 kts 206°
2026-05-06 14:15 51.22971 -0.48953 10923 ft 342 kts 207°
2026-05-06 14:15 51.20826 -0.50569 11600 ft 347 kts 207°
2026-05-06 14:16 51.18653 -0.52230 12336 ft 350 kts 208°
2026-05-06 14:16 51.16443 -0.53937 13083 ft 353 kts 208°
2026-05-06 14:16 51.14231 -0.55653 13826 ft 356 kts 208°
2026-05-06 14:16 51.12003 -0.57388 14473 ft 358 kts 208°
2026-05-06 14:17 51.09729 -0.59030 15120 ft 363 kts 201°
2026-05-06 14:17 51.07235 -0.59910 15738 ft 369 kts 187°
2026-05-06 14:17 51.04686 -0.59807 16358 ft 374 kts 173°
2026-05-06 14:17 51.02149 -0.58683 16975 ft 379 kts 158°
2026-05-06 14:18 50.99856 -0.56625 17622 ft 383 kts 147°
2026-05-06 14:18 50.97647 -0.54256 18261 ft 386 kts 147°
2026-05-06 14:18 50.95428 -0.51878 18833 ft 389 kts 147°
2026-05-06 14:18 50.93142 -0.49432 19416 ft 392 kts 147°
2026-05-06 14:19 50.90981 -0.47124 19987 ft 395 kts 147°
2026-05-06 14:19 50.88672 -0.44668 20581 ft 398 kts 147°
2026-05-06 14:19 50.86383 -0.42244 21152 ft 401 kts 148°
2026-05-06 14:19 50.84037 -0.39766 21715 ft 404 kts 148°
2026-05-06 14:20 50.82081 -0.37697 22167 ft 406 kts 148°
2026-05-06 14:20 50.79736 -0.35215 22701 ft 409 kts 147°
2026-05-06 14:20 50.77357 -0.32701 23218 ft 412 kts 147°
2026-05-06 14:20 50.74966 -0.30177 23702 ft 415 kts 147°
2026-05-06 14:21 50.72624 -0.27524 24122 ft 418 kts 141°
2026-05-06 14:21 50.70543 -0.24291 24541 ft 421 kts 131°
2026-05-06 14:21 50.68840 -0.20542 24872 ft 424 kts 121°
2026-05-06 14:21 50.67484 -0.16358 24965 ft 425 kts 116°
2026-05-06 14:22 50.66209 -0.12192 24975 ft 424 kts 116°
2026-05-06 14:22 50.64921 -0.07986 24976 ft 424 kts 116°
2026-05-06 14:22 50.63634 -0.03800 24974 ft 424 kts 116°
2026-05-06 14:22 50.62347 0.00371 24973 ft 424 kts 117°
2026-05-06 14:23 50.61060 0.04528 24975 ft 424 kts 117°
2026-05-06 14:23 50.59762 0.08707 24973 ft 424 kts 117°
2026-05-06 14:23 50.58474 0.12842 24972 ft 424 kts 117°
2026-05-06 14:23 50.57182 0.16981 24969 ft 424 kts 117°
2026-05-06 14:24 50.55878 0.21155 24969 ft 424 kts 117°
2026-05-06 14:24 50.54571 0.25340 24968 ft 424 kts 117°
2026-05-06 14:24 50.53279 0.29471 24966 ft 424 kts 117°
2026-05-06 14:24 50.51989 0.33586 24971 ft 424 kts 117°
2026-05-06 14:25 50.50676 0.37762 24968 ft 424 kts 117°
2026-05-06 14:25 50.49365 0.41918 24970 ft 423 kts 117°
2026-05-06 14:25 50.47984 0.45974 24967 ft 422 kts 123°
2026-05-06 14:25 50.46253 0.49634 24966 ft 421 kts 133°
2026-05-06 14:26 50.44146 0.52844 24966 ft 419 kts 142°
2026-05-06 14:26 50.41895 0.55687 24966 ft 419 kts 142°
2026-05-06 14:26 50.39669 0.58492 24960 ft 419 kts 142°
2026-05-06 14:26 50.37380 0.61365 24958 ft 419 kts 142°
2026-05-06 14:27 50.35105 0.64214 24958 ft 419 kts 142°
2026-05-06 14:27 50.32842 0.67049 24957 ft 419 kts 142°
2026-05-06 14:27 50.30565 0.69907 24959 ft 419 kts 142°
2026-05-06 14:27 50.28295 0.72757 24957 ft 419 kts 142°
2026-05-06 14:28 50.26006 0.75627 24960 ft 419 kts 142°
2026-05-06 14:28 50.23732 0.78468 24962 ft 419 kts 142°
2026-05-06 14:28 50.21473 0.81283 24960 ft 420 kts 142°
2026-05-06 14:28 50.19189 0.84123 24959 ft 420 kts 142°
2026-05-06 14:29 50.16918 0.86950 24908 ft 417 kts 142°
2026-05-06 14:29 50.14826 0.89548 24973 ft 410 kts 142°
2026-05-06 14:29 50.12606 0.92303 24968 ft 408 kts 142°
2026-05-06 14:29 50.10385 0.95061 24971 ft 408 kts 142°
2026-05-06 14:30 50.08156 0.97823 24739 ft 409 kts 142°
2026-05-06 14:30 50.05884 1.00488 24251 ft 406 kts 148°
2026-05-06 14:30 50.03442 1.02533 23996 ft 399 kts 155°
2026-05-06 14:30 50.00938 1.04400 23954 ft 399 kts 155°
2026-05-06 14:31 49.98427 1.06293 23616 ft 400 kts 155°
2026-05-06 14:31 49.95929 1.08185 23209 ft 397 kts 155°
2026-05-06 14:31 49.93430 1.10075 22790 ft 395 kts 155°
2026-05-06 14:31 49.90991 1.11919 22383 ft 393 kts 154°
2026-05-06 14:32 49.88554 1.13755 21979 ft 391 kts 154°
2026-05-06 14:32 49.86104 1.15591 21579 ft 389 kts 154°
2026-05-06 14:32 49.83678 1.17409 21189 ft 387 kts 154°
2026-05-06 14:32 49.81261 1.19219 20791 ft 385 kts 154°
2026-05-06 14:33 49.78901 1.20982 20423 ft 383 kts 154°
2026-05-06 14:33 49.76486 1.22777 20044 ft 381 kts 154°
2026-05-06 14:33 49.74113 1.24538 19671 ft 380 kts 154°
2026-05-06 14:33 49.71736 1.26302 19305 ft 378 kts 154°
2026-05-06 14:34 49.69530 1.27939 18968 ft 376 kts 154°
2026-05-06 14:34 49.67213 1.29660 18619 ft 374 kts 154°
2026-05-06 14:34 49.64840 1.31423 18254 ft 372 kts 154°
2026-05-06 14:34 49.62526 1.33137 17851 ft 371 kts 154°
2026-05-06 14:35 49.60238 1.34828 17446 ft 368 kts 154°
2026-05-06 14:35 49.57901 1.36553 17043 ft 365 kts 154°
2026-05-06 14:35 49.55616 1.38240 16748 ft 364 kts 154°
2026-05-06 14:35 49.53346 1.39918 16474 ft 363 kts 154°
2026-05-06 14:36 49.51065 1.41605 16211 ft 361 kts 154°
2026-05-06 14:36 49.48823 1.43264 15957 ft 360 kts 154°
2026-05-06 14:36 49.46559 1.44933 15705 ft 358 kts 154°
2026-05-06 14:36 49.44309 1.46586 15447 ft 357 kts 154°
2026-05-06 14:37 49.42068 1.48228 15197 ft 356 kts 154°
2026-05-06 14:37 49.39870 1.49838 14954 ft 356 kts 154°
2026-05-06 14:37 49.37628 1.51476 14697 ft 355 kts 154°
2026-05-06 14:37 49.35404 1.53105 14454 ft 354 kts 153°
2026-05-06 14:38 49.33337 1.55153 14078 ft 351 kts 139°
2026-05-06 14:38 49.31690 1.57802 13716 ft 347 kts 125°
2026-05-06 14:38 49.30461 1.61003 13305 ft 344 kts 111°
2026-05-06 14:38 49.29749 1.64480 12901 ft 340 kts 98°
2026-05-06 14:39 49.29520 1.68010 12505 ft 337 kts 91°
2026-05-06 14:39 49.29369 1.71606 12107 ft 336 kts 92°
2026-05-06 14:39 49.29143 1.75133 11924 ft 334 kts 98°
2026-05-06 14:39 49.28530 1.78614 11941 ft 338 kts 108°
2026-05-06 14:40 49.27756 1.81981 11943 ft 339 kts 108°
2026-05-06 14:40 49.26973 1.85418 11942 ft 339 kts 107°
2026-05-06 14:40 49.26209 1.88794 11943 ft 339 kts 107°
2026-05-06 14:40 49.25433 1.92208 11943 ft 339 kts 107°
2026-05-06 14:41 49.24656 1.95621 11944 ft 338 kts 107°
2026-05-06 14:41 49.23893 1.98955 11941 ft 323 kts 107°
2026-05-06 14:41 49.23176 2.02083 11944 ft 308 kts 107°
2026-05-06 14:41 49.22476 2.05145 11944 ft 304 kts 108°
2026-05-06 14:42 49.21783 2.08183 11942 ft 303 kts 107°
2026-05-06 14:42 49.21083 2.11240 11943 ft 303 kts 108°
2026-05-06 14:42 49.20392 2.14249 11947 ft 303 kts 108°
2026-05-06 14:42 49.19683 2.17333 11943 ft 303 kts 108°
2026-05-06 14:43 49.18986 2.20363 11944 ft 303 kts 108°
2026-05-06 14:43 49.18279 2.23429 11943 ft 304 kts 108°
2026-05-06 14:43 49.17584 2.26436 11911 ft 302 kts 108°
2026-05-06 14:43 49.16875 2.29497 11934 ft 304 kts 108°
2026-05-06 14:44 49.16163 2.32555 11938 ft 304 kts 108°
2026-05-06 14:44 49.15467 2.35547 11924 ft 304 kts 108°
2026-05-06 14:44 49.14758 2.38596 11920 ft 304 kts 108°
2026-05-06 14:45 49.13319 2.44784 11037 ft 312 kts 108°
2026-05-06 14:45 49.12588 2.47932 10532 ft 315 kts 108°
2026-05-06 14:45 49.11848 2.51098 10044 ft 317 kts 108°
2026-05-06 14:45 49.11114 2.54232 9536 ft 316 kts 108°
2026-05-06 14:46 49.10386 2.57333 8997 ft 305 kts 108°
2026-05-06 14:46 49.09670 2.60376 8468 ft 296 kts 108°
2026-05-06 14:46 49.08987 2.63274 7956 ft 289 kts 108°
2026-05-06 14:46 49.08313 2.66139 7444 ft 284 kts 108°
2026-05-06 14:47 49.07646 2.68970 6940 ft 281 kts 108°
2026-05-06 14:47 49.06997 2.71722 6459 ft 279 kts 108°
2026-05-06 14:47 49.06334 2.74535 5936 ft 277 kts 108°
2026-05-06 14:47 49.05690 2.77257 5422 ft 273 kts 108°
2026-05-06 14:48 49.05047 2.79966 4908 ft 268 kts 108°
2026-05-06 14:48 49.04410 2.82635 4378 ft 265 kts 108°
2026-05-06 14:48 49.03797 2.85204 4038 ft 254 kts 107°
2026-05-06 14:48 49.03218 2.87631 3993 ft 231 kts 107°
2026-05-06 14:49 49.02759 2.89522 4000 ft 210 kts 110°
2026-05-06 14:49 49.01863 2.91123 4009 ft 193 kts 155°
2026-05-06 14:49 49.00602 2.91193 4009 ft 178 kts 207°
2026-05-06 14:49 48.99862 2.89844 4011 ft 169 kts 263°
2026-05-06 14:50 49.00120 2.88225 4030 ft 159 kts 306°
2026-05-06 14:50 49.00608 2.86703 4006 ft 164 kts 282°
2026-05-06 14:50 49.00659 2.84942 3829 ft 168 kts 275°
2026-05-06 14:50 49.00636 2.83221 3420 ft 157 kts 272°
2026-05-06 14:51 49.00578 2.81606 3091 ft 148 kts 271°
2026-05-06 14:51 49.00509 2.80079 3007 ft 142 kts 270°
2026-05-06 14:51 49.00437 2.78568 2794 ft 141 kts 270°
2026-05-06 14:51 49.00363 2.77077 2590 ft 140 kts 270°
2026-05-06 14:52 49.00288 2.75611 2398 ft 139 kts 270°
2026-05-06 14:52 49.00213 2.74145 2202 ft 139 kts 270°
2026-05-06 14:52 49.00163 2.73175 2072 ft 139 kts 270°
2026-05-06 14:52 49.00093 2.71810 1898 ft 138 kts 270°
2026-05-06 14:53 49.00017 2.70356 1717 ft 138 kts 269°
2026-05-06 14:53 48.99967 2.69388 1588 ft 137 kts 270°
2026-05-06 14:53 48.99891 2.67941 1396 ft 137 kts 269°
2026-05-06 14:53 48.99816 2.66495 1195 ft 137 kts 270°
2026-05-06 14:54 48.99795 2.66092 1141 ft 137 kts 270°
2026-05-06 14:54 48.99732 2.64891 977 ft 135 kts 269°
2026-05-06 14:54 48.99657 2.63470 793 ft 135 kts 271°
2026-05-06 14:54 48.99581 2.62027 622 ft 136 kts 269°
2026-05-06 14:55 48.99506 2.60610 419 ft 135 kts 269°
2026-05-06 14:55 48.99438 2.59308 355 ft 79 kts 265°
2026-05-06 14:55 48.99411 2.58844 358 ft 36 kts 266°
2026-05-06 14:55 48.99401 2.58474 353 ft 34 kts 267°
2026-05-06 14:56 48.99423 2.58148 355 ft 14 kts 295°
2026-05-06 14:56 48.99449 2.57997 355 ft 16 kts 285°
2026-05-06 14:56 48.99484 2.57821 358 ft 20 kts 289°
2026-05-06 14:56 48.99511 2.57656 353 ft 16 kts 283°
2026-05-06 14:57 48.99515 2.57484 353 ft 18 kts 265°
2026-05-06 14:57 48.99505 2.57275 347 ft 22 kts 267°
2026-05-06 14:57 48.99494 2.57063 351 ft 12 kts 265°
2026-05-06 14:57 48.99485 2.56935 359 ft 13 kts 264°
2026-05-06 14:58 48.99476 2.56779 351 ft 17 kts 266°
2026-05-06 14:58 48.99469 2.56600 357 ft 17 kts 266°
2026-05-06 14:58 48.99465 2.56414 356 ft 19 kts 271°
2026-05-06 14:58 48.99460 2.56268 354 ft 14 kts 262°
2026-05-06 14:59 48.99470 2.56114 360 ft 15 kts 299°
2026-05-06 14:59 48.99558 2.56053 356 ft 16 kts 354°
2026-05-06 14:59 48.99684 2.56040 354 ft 19 kts 358°
2026-05-06 14:59 48.99770 2.56035 357 ft 7 kts 356°
2026-05-06 15:00 48.99832 2.56023 355 ft 11 kts 346°
2026-05-06 15:00 48.99888 2.55945 357 ft 12 kts 278°
2026-05-06 15:00 48.99914 2.55801 354 ft 16 kts 285°
2026-05-06 15:00 48.99980 2.55676 354 ft 17 kts 344°
2026-05-06 15:01 49.00093 2.55625 350 ft 10 kts 343°
2026-05-06 15:01 49.00173 2.55590 351 ft 13 kts 344°
2026-05-06 15:01 49.00274 2.55550 349 ft 16 kts 346°
2026-05-06 15:01 49.00293 2.55542 331 ft 0 kts 335°
2026-05-06 15:02 49.00445 2.55402 568 ft 161 kts 329°